Theta_e
355 356 356 355 355 355 354 354 354 354 355 354 354 354 354 354 355 355 354 353 351 349 350 351 351 350 349 350 349 349 349 349 348 349 350 350 351 353 356 357 358 359 358 357 353 352 351 353 355 355 355 356 356 352 353 356 356 356 356 356 356 354 354 355 356 356 356 355 355 355 354 354 353 354 355 354 354 354 354 353 354 354 354 354 354
356 356 356 355 355 355 354 354 353 353 353 352 353 353 353 353 353 353 352 349 348 346 350 351 352 351 350 349 349 349 350 350 350 350 350 350 351 352 356 358 358 358 359 355 350 351 352 354 355 355 355 355 355 351 352 353 356 356 356 356 357 355 355 355 356 356 356 356 355 355 355 355 354 354 355 355 355 355 354 354 354 354 354 354 354
357 356 355 355 354 353 351 351 351 352 352 352 353 354 354 354 353 352 349 348 347 346 348 348 350 351 351 350 350 351 351 351 351 351 351 351 352 353 353 356 358 359 358 358 354 351 350 349 354 355 354 355 354 355 353 353 352 354 355 356 356 357 354 355 355 356 356 356 356 356 355 355 355 354 355 355 355 355 355 355 355 355 355 355 355
357 356 355 354 352 351 350 349 349 349 352 353 353 355 354 351 350 349 346 346 346 346 347 348 349 350 351 350 350 350 351 352 351 351 351 352 352 352 352 353 355 357 358 359 358 355 354 354 353 354 355 355 355 354 355 355 355 355 352 354 356 356 356 354 355 357 356 356 356 356 356 355 355 355 355 355 356 355 355 355 355 355 355 355 355
358 357 358 354 352 349 347 349 348 349 350 352 353 351 349 349 348 347 346 346 346 346 348 349 349 350 350 350 351 351 352 352 352 351 351 351 351 351 351 352 353 354 356 357 359 360 357 356 355 356 355 355 355 355 355 355 353 352 353 353 353 354 356 356 355 356 357 356 356 356 356 356 356 356 355 355 355 355 355 355 355 356 355 355 355
357 356 355 352 350 348 347 348 349 350 350 350 350 351 349 348 347 345 346 347 345 347 347 347 349 350 349 351 351 351 351 351 351 352 352 351 352 352 351 352 352 353 353 354 356 358 359 358 357 356 356 356 356 356 356 356 355 352 352 351 352 353 353 355 355 355 357 357 357 356 356 356 357 356 356 355 355 356 356 356 356 356 355 356 355
356 354 352 352 350 347 346 348 350 350 349 349 350 349 348 347 347 344 344 345 345 346 347 347 346 346 348 351 351 352 352 351 352 351 351 351 351 351 352 351 351 352 352 353 353 353 356 359 358 357 356 356 355 356 356 355 354 351 351 352 353 353 354 353 355 356 356 357 357 357 357 356 357 356 357 356 356 355 356 356 356 356 356 356 356
355 353 351 349 348 347 346 346 348 349 349 349 350 347 347 347 347 347 345 345 344 344 347 346 346 346 349 350 350 351 351 351 351 351 351 352 351 351 351 351 351 351 352 352 353 353 354 356 357 357 355 354 354 354 355 354 353 351 352 354 355 353 353 349 351 354 355 357 357 357 357 357 357 357 357 357 356 356 356 356 356 356 356 356 356
354 349 346 348 349 349 348 346 348 350 350 349 348 349 347 347 347 349 347 346 346 345 345 346 346 346 347 347 348 349 349 349 349 349 351 350 350 349 350 350 351 353 354 352 352 353 353 354 355 356 356 355 354 351 349 351 350 350 351 353 353 354 354 352 352 353 354 356 357 357 357 357 357 357 357 357 357 356 356 356 356 357 357 357 357
351 349 347 348 348 348 349 349 349 349 347 345 347 347 348 347 347 347 347 345 344 344 344 345 345 345 346 346 348 348 348 348 348 350 350 349 350 350 350 350 350 350 351 351 352 353 353 353 355 356 355 354 353 352 350 350 350 352 351 351 353 355 354 354 353 353 353 355 355 356 357 357 357 357 357 357 357 357 357 356 356 357 357 357 357
351 350 349 349 350 348 349 350 349 346 344 344 343 345 347 346 346 346 346 346 345 345 345 345 345 345 345 346 348 347 347 347 348 348 348 348 349 352 352 351 350 350 351 352 352 352 353 353 353 354 353 353 354 353 352 350 351 352 353 353 354 355 356 356 355 353 354 354 355 356 356 357 357 358 357 357 357 357 357 357 356 357 357 356 357
352 351 350 351 349 349 348 346 347 346 345 345 344 342 342 344 344 344 343 343 345 345 345 344 344 343 344 345 344 343 344 344 345 346 349 348 349 351 349 353 353 351 352 353 352 351 350 350 351 351 352 353 354 353 353 353 353 352 351 354 356 355 355 356 356 355 355 354 356 356 355 356 357 358 358 357 357 357 357 357 357 357 357 357 357
353 351 349 353 349 347 345 345 344 346 345 345 345 344 343 344 343 345 346 343 342 343 344 344 341 340 336 336 338 339 339 341 343 345 344 344 345 345 348 348 350 351 351 350 350 349 349 349 349 350 350 352 352 354 354 354 355 355 354 355 355 356 356 356 356 356 356 356 356 356 356 355 356 356 358 358 357 357 357 357 357 358 357 357 358
354 352 352 350 350 347 345 344 343 344 345 346 346 348 348 345 345 344 343 343 341 342 343 341 336 335 333 334 334 334 337 338 342 339 340 340 341 342 344 342 343 347 348 347 347 346 346 347 348 348 349 349 350 352 354 355 355 355 354 355 355 357 357 357 356 356 357 355 355 353 354 356 355 355 355 358 357 357 357 356 356 357 357 358 358
354 353 351 349 349 348 347 345 345 346 346 343 342 342 341 342 342 343 341 340 341 342 343 341 337 333 331 330 326 328 334 335 335 337 338 339 340 339 343 340 342 344 346 346 345 345 345 346 347 348 349 349 351 351 353 353 354 355 355 354 354 355 357 357 357 357 353 353 353 352 350 350 354 355 356 355 356 357 357 356 356 356 356 357 357
352 353 352 350 349 349 347 346 345 345 343 341 338 341 340 341 340 341 341 339 334 336 342 340 339 337 330 328 327 326 323 328 329 334 337 337 338 338 341 341 340 342 345 342 342 343 344 345 345 347 348 349 350 352 352 353 354 355 355 354 353 354 353 354 353 352 352 353 351 352 352 351 352 354 355 356 355 356 357 356 356 356 356 357 357
351 353 352 349 348 346 345 343 340 342 343 338 337 338 338 339 337 340 340 338 334 331 338 340 338 341 336 329 325 323 323 327 329 331 333 335 336 338 341 339 339 342 341 341 342 342 343 342 343 344 345 347 348 349 350 352 352 353 354 355 355 354 353 352 352 352 353 355 353 353 352 353 354 354 355 355 356 355 355 357 356 356 356 356 357
348 348 349 347 345 344 344 343 341 343 343 341 339 339 337 338 338 339 336 335 336 332 333 339 339 339 337 335 333 330 327 329 328 324 335 335 336 338 339 337 339 337 339 340 340 340 342 339 341 341 341 343 344 346 347 348 351 351 352 352 354 354 354 355 353 355 355 355 355 354 353 353 353 353 354 355 355 356 355 356 356 356 356 356 356
344 345 346 347 344 343 343 342 341 342 346 339 339 339 338 336 340 338 335 337 336 335 333 334 335 338 337 337 337 337 336 331 325 327 323 329 334 334 333 335 334 336 336 337 337 338 338 339 339 339 341 342 343 345 346 346 347 348 350 351 350 351 352 352 352 354 355 356 354 354 355 355 355 354 354 354 355 356 355 355 356 356 356 356 356
342 342 343 347 344 342 342 341 341 342 346 340 340 340 340 342 344 341 342 341 337 337 335 332 334 333 337 335 335 337 336 336 335 330 326 322 327 330 332 333 332 332 334 334 334 335 335 338 339 339 341 342 342 343 343 345 346 347 348 349 351 351 352 351 352 353 354 355 353 354 354 354 355 355 355 355 355 355 356 356 356 356 356 357 357
339 341 342 345 348 342 341 341 340 342 344 339 338 338 340 340 339 338 339 340 338 339 337 333 332 332 331 332 332 332 333 334 335 335 329 323 322 323 325 329 331 333 333 333 334 335 335 337 338 339 340 340 340 341 342 342 343 344 343 342 344 347 348 348 349 352 353 353 355 354 354 354 354 355 354 355 356 356 356 356 356 356 356 357 358
337 341 343 344 345 343 341 341 340 342 344 338 337 337 336 335 334 335 333 339 337 339 336 332 333 332 331 331 330 330 329 329 330 331 331 329 323 323 325 324 323 328 331 332 334 335 335 335 336 337 338 338 338 340 340 338 338 336 337 338 338 338 339 339 340 344 346 348 351 353 354 354 354 354 355 355 355 356 356 356 355 356 356 356 356
339 340 341 343 341 344 341 340 340 345 346 338 339 338 336 336 335 334 335 337 337 336 337 335 333 333 332 332 331 330 330 327 326 328 327 324 324 324 325 326 325 324 329 332 333 333 335 335 335 334 336 336 337 339 337 336 332 333 336 336 336 336 336 336 337 339 340 342 345 347 349 352 353 354 353 354 355 356 357 356 356 356 357 356 356
337 338 338 340 341 342 342 341 343 344 340 338 338 338 339 337 335 335 335 335 334 337 333 332 333 331 331 331 331 331 330 330 330 328 327 326 324 324 324 325 326 326 329 330 333 333 332 331 334 335 335 335 337 338 334 332 331 333 334 335 335 334 333 334 335 335 336 337 340 343 345 348 350 352 353 353 353 354 355 354 356 357 357 357 356
335 337 338 339 341 339 340 339 341 342 341 337 338 338 339 338 336 335 332 334 336 336 335 335 334 333 334 332 332 332 332 333 333 331 329 329 327 325 325 326 322 323 327 328 328 330 331 333 335 336 336 335 336 335 332 330 331 332 334 333 333 332 332 332 333 333 334 334 335 338 341 345 347 347 349 351 353 354 354 354 354 355 356 356 356
335 336 338 339 341 340 342 340 340 341 341 338 338 339 339 338 337 336 335 335 334 336 337 337 334 335 334 333 332 333 334 335 334 332 330 328 325 324 323 324 325 323 324 326 326 324 328 331 333 334 335 334 335 333 331 329 330 331 333 333 331 331 331 331 332 333 333 333 334 335 336 338 340 343 346 348 349 351 353 354 355 354 355 355 356
335 337 339 339 339 338 339 339 338 338 341 340 341 339 339 339 338 337 337 335 335 337 336 336 335 335 333 333 334 333 334 335 334 333 333 331 329 327 324 320 320 318 319 321 322 323 322 327 329 332 333 335 334 330 329 330 330 331 333 331 331 330 330 330 331 332 332 333 333 334 335 335 337 339 340 344 346 348 350 352 354 354 354 354 354
334 338 338 338 337 337 340 340 338 338 339 340 340 339 337 337 336 337 336 338 335 335 336 335 335 335 334 333 333 334 335 334 334 334 333 332 332 330 328 324 318 316 316 316 316 320 322 324 329 330 331 332 330 328 329 328 327 330 332 331 330 330 330 330 330 330 332 332 333 333 334 334 335 335 337 340 342 344 346 348 350 351 352 352 353
333 338 337 337 337 337 337 339 338 337 337 339 338 338 337 337 337 335 335 335 337 336 335 335 336 335 334 334 334 334 334 334 334 334 333 332 332 330 329 327 323 318 315 314 316 316 321 322 322 329 330 330 328 328 327 328 328 330 330 330 329 330 329 329 330 331 332 332 331 331 332 333 333 334 335 337 339 341 344 345 345 347 348 349 351
334 338 337 337 336 342 336 337 338 336 336 336 337 337 337 336 336 336 336 335 334 335 336 335 335 334 335 334 334 334 335 333 333 333 333 332 331 329 328 327 326 322 319 314 313 317 321 323 322 324 329 328 327 327 327 327 328 329 329 329 329 328 327 329 330 330 330 330 329 329 330 331 332 333 333 333 335 338 340 342 343 344 345 346 349
337 337 337 336 336 337 337 336 336 336 335 335 336 336 336 336 336 335 335 335 334 333 334 335 335 335 334 334 334 333 334 334 333 332 332 331 330 330 329 326 325 325 322 318 314 318 320 321 324 324 324 326 326 326 326 327 328 329 329 328 328 328 329 329 329 328 328 329 329 329 328 328 329 330 331 332 334 336 338 340 341 342 343 345 347
335 335 336 336 336 335 336 336 335 335 335 335 335 336 335 335 335 335 335 334 333 333 334 334 334 335 334 333 334 333 334 333 332 331 331 331 331 329 328 326 326 323 322 320 316 315 321 320 321 324 325 325 326 325 326 327 328 329 327 327 327 328 327 327 327 328 327 327 328 327 326 326 328 330 331 332 333 336 338 338 338 339 341 342 344
334 334 334 335 335 335 335 336 335 335 334 334 334 334 334 334 334 334 334 334 333 333 334 334 334 334 334 334 334 334 335 333 332 331 330 330 330 329 328 326 324 322 321 319 317 316 319 323 322 322 325 325 324 327 326 326 327 327 327 327 327 326 326 327 327 328 328 327 326 326 326 326 327 328 329 331 332 335 336 338 338 338 339 339 339
333 333 334 335 336 334 334 333 334 334 334 334 334 334 334 333 334 334 334 334 333 333 333 333 334 334 334 333 333 334 334 332 332 330 330 329 328 327 326 325 324 322 323 321 319 318 314 320 321 324 323 324 322 327 325 325 326 327 326 326 326 326 326 326 326 327 328 327 325 324 325 325 326 328 329 330 331 332 334 335 335 336 336 336 336
333 333 334 334 335 334 333 334 333 333 333 333 333 333 333 333 333 334 335 335 334 334 333 334 334 334 333 332 332 333 332 331 331 330 330 329 328 327 327 326 325 324 323 323 321 318 317 317 321 321 322 324 323 324 327 327 327 327 325 325 325 325 326 326 326 326 327 326 325 324 324 325 326 327 327 329 329 329 330 330 331 332 332 333 333
331 333 334 334 334 334 333 333 333 333 333 332 333 333 333 333 333 333 333 333 334 334 334 334 334 334 333 332 332 332 332 331 331 330 329 328 327 327 326 326 325 324 324 323 322 320 320 317 319 319 322 321 323 326 327 327 326 325 325 324 325 324 325 326 326 326 326 325 324 324 324 324 324 324 325 325 326 326 326 326 327 329 329 329 329
331 331 334 334 333 332 332 332 332 332 332 333 332 332 333 333 333 333 332 333 333 334 334 335 335 335 334 333 333 333 332 330 330 329 329 328 327 326 326 326 325 325 324 323 322 320 319 318 319 322 323 322 324 325 327 325 324 324 325 323 323 324 325 325 325 326 325 324 325 324 324 324 324 324 325 325 325 325 326 326 326 327 327 328 328
331 331 331 331 333 331 332 332 332 332 332 332 332 332 332 332 332 332 333 333 333 333 334 333 334 335 334 334 333 333 331 329 330 330 329 328 328 326 326 326 326 325 324 324 323 322 320 319 319 319 322 321 322 324 327 326 323 321 321 322 324 324 324 323 323 323 325 324 324 324 324 324 325 325 324 325 325 325 325 325 325 325 324 324 323
331 331 331 331 332 332 332 332 332 332 332 332 331 331 331 332 332 332 332 332 333 333 333 333 333 333 333 333 333 333 331 331 330 329 329 328 328 327 327 326 326 325 324 323 324 322 321 319 320 320 320 322 323 321 325 327 324 322 319 318 318 322 324 323 322 323 324 323 324 325 324 324 325 325 323 323 324 325 325 325 325 324 323 322 321
332 332 331 331 331 332 332 333 333 333 331 330 330 331 331 331 331 332 332 333 333 333 333 333 333 333 333 333 332 332 332 331 330 330 329 329 328 327 327 326 325 325 324 324 323 322 321 320 319 319 321 321 322 325 326 325 321 320 321 319 316 318 320 323 323 321 322 323 322 322 324 324 324 325 324 324 325 326 325 326 327 328 326 323 322
333 332 332 331 330 329 331 331 330 331 330 330 331 331 331 331 331 331 332 332 332 332 332 332 332 332 332 332 331 331 332 331 328 327 326 325 328 327 328 327 326 325 324 323 322 321 320 319 319 321 321 320 321 320 319 319 318 317 321 321 318 320 321 320 321 323 323 321 322 322 323 324 324 325 327 328 329 330 331 332 333 333 330 325 323
333 333 331 330 329 329 329 330 329 330 330 331 333 331 330 332 330 331 331 332 332 332 332 331 331 330 330 330 331 332 329 326 325 325 322 321 321 326 330 329 327 326 324 323 322 322 321 319 319 319 318 318 319 320 319 321 322 323 321 320 317 319 320 319 320 322 324 322 320 320 322 325 324 323 324 324 327 330 332 336 339 338 334 328 326
332 331 331 328 328 328 328 328 328 329 330 331 329 326 327 330 334 332 331 332 332 332 331 331 331 331 331 330 330 331 331 330 331 327 324 322 322 320 319 320 322 327 325 323 323 323 321 320 320 320 319 318 319 321 321 321 322 321 320 320 319 318 317 314 312 318 325 323 321 319 319 323 324 321 322 323 325 327 328 330 333 335 331 329 327
332 331 330 329 328 328 328 329 329 330 330 330 325 325 327 327 330 334 333 332 332 331 331 330 330 330 330 330 330 330 331 331 331 331 329 326 323 321 320 319 318 317 319 326 325 323 322 321 320 320 320 320 320 321 320 320 320 321 321 320 319 318 316 315 315 314 319 324 319 317 316 321 323 321 321 323 325 326 327 326 327 331 331 329 328
331 330 329 329 328 329 329 329 329 330 331 328 324 324 324 324 325 329 333 333 332 331 331 330 330 329 329 329 329 329 329 327 330 331 330 330 324 322 320 319 318 317 317 317 318 325 326 322 321 320 321 321 320 321 323 323 323 320 320 318 319 319 318 316 316 316 319 322 319 316 314 318 321 320 320 323 325 326 327 327 327 328 330 329 328
330 329 329 329 329 329 329 329 330 331 331 328 323 322 322 321 322 326 331 331 332 331 331 330 329 329 328 328 327 327 328 328 329 328 328 328 327 327 327 327 326 325 319 317 316 315 318 322 322 320 323 324 321 322 324 324 321 319 318 317 319 317 317 316 318 318 320 322 317 316 314 316 320 320 319 321 325 326 327 327 325 326 328 329 328
329 329 329 329 329 330 330 331 330 330 331 326 321 320 318 318 319 324 329 329 330 329 329 329 328 328 327 327 326 326 327 327 328 328 328 327 327 326 326 325 326 326 326 325 324 324 324 322 322 323 323 324 323 324 324 323 322 321 321 319 319 318 317 318 318 319 320 322 320 318 311 316 321 319 319 321 324 325 327 325 325 326 327 327 327
330 330 330 330 329 330 331 331 330 330 332 324 320 319 318 318 320 328 328 327 327 327 327 327 326 326 326 326 326 326 326 327 323 319 322 326 326 325 324 324 324 324 324 321 319 320 324 325 324 324 324 323 317 321 321 320 320 319 319 318 318 317 315 314 313 316 316 320 321 317 315 316 321 319 319 323 324 324 326 328 325 324 324 326 327
328 328 328 329 330 330 330 331 330 330 331 326 318 316 316 316 320 327 326 326 326 325 325 325 324 324 325 325 326 326 326 326 321 317 317 318 323 323 322 322 322 321 321 323 318 315 313 311 310 311 311 311 312 311 311 311 316 316 316 314 312 315 314 311 312 313 314 317 319 320 317 314 317 319 319 322 323 323 325 327 329 326 325 324 325
328 328 329 330 330 331 331 330 330 330 330 326 318 313 313 315 321 326 325 324 324 324 324 323 323 324 325 327 328 328 327 326 319 315 314 316 320 321 321 320 319 318 319 320 320 320 314 312 312 312 312 313 312 311 311 311 311 312 316 312 314 315 312 313 311 312 314 316 317 320 316 314 317 320 319 322 324 324 325 326 328 329 327 325 323
329 330 331 330 330 330 331 331 332 331 330 326 315 313 312 313 319 324 324 324 323 323 322 322 323 323 323 324 323 323 323 321 312 311 310 313 319 320 320 318 316 316 318 317 315 314 315 315 317 318 318 316 319 319 320 314 314 315 320 318 318 315 312 312 312 312 310 312 318 321 315 315 316 318 320 318 317 322 326 328 328 330 332 337 339
Wind_Speed
5 5 4 4 4 4 3 3 4 4 3 3 3 4 4 3 3 3 2 2 4 6 6 4 3 2 3 5 4 4 3 4 5 5 5 5 5 6 9 10 11 11 10 9 5 6 7 11 12 13 13 12 11 13 16 16 16 15 15 14 15 14 14 14 14 14 13 13 13 13 13 12 12 11 11 11 11 11 11 10 10 10 10 9 9
5 4 4 5 4 3 2 3 4 3 3 4 2 3 3 3 2 2 2 1 1 3 3 6 6 3 3 4 4 4 4 4 4 5 5 5 5 6 8 9 10 10 10 5 1 8 12 11 11 12 12 14 13 16 16 17 17 17 16 15 15 15 15 15 15 15 14 14 14 13 13 13 13 12 12 12 12 11 11 11 11 11 10 10 9
5 5 4 4 3 2 2 2 2 2 2 3 2 2 2 2 1 1 0 0 1 1 2 4 5 4 3 5 5 3 4 4 6 5 5 4 4 4 5 8 9 9 8 7 10 10 10 10 11 12 12 13 15 16 16 15 18 17 17 16 16 15 16 15 15 15 15 14 14 14 13 13 13 13 12 12 12 12 12 12 12 12 11 11 10
6 5 5 4 2 2 1 2 2 2 2 2 2 2 1 1 1 2 2 1 1 2 3 4 6 6 5 5 4 5 5 5 5 4 4 4 3 4 4 4 7 8 8 7 7 10 11 12 12 12 14 15 16 17 18 19 17 16 16 17 17 16 16 16 16 16 16 15 14 14 14 13 13 13 13 13 13 13 13 13 12 12 12 12 11
5 6 4 1 2 1 1 1 1 2 3 4 3 2 1 1 0 1 1 2 2 4 4 5 6 6 5 6 4 4 4 5 4 4 4 3 3 3 3 4 4 6 7 7 8 9 10 11 12 13 15 15 16 17 17 17 15 16 18 18 17 17 16 17 16 17 16 15 15 15 14 14 14 14 14 14 14 13 13 13 13 13 13 12 11
5 4 1 2 1 1 1 3 3 3 4 3 3 2 2 2 2 0 2 2 4 5 5 5 5 5 5 5 5 4 3 4 4 4 4 4 3 3 3 3 3 3 3 6 8 8 10 12 13 14 15 14 16 17 16 15 14 14 14 17 17 18 16 17 17 17 17 16 16 16 15 15 15 14 14 14 14 14 14 14 14 14 13 13 12
4 2 4 3 2 1 1 3 4 3 3 3 3 2 3 3 2 1 2 4 5 5 4 5 5 4 4 4 5 3 3 4 3 4 4 3 3 3 3 3 3 3 3 3 4 7 11 10 12 14 14 15 17 16 15 13 11 11 17 18 18 13 15 16 18 18 17 18 17 16 16 16 15 15 15 15 15 15 15 15 15 14 14 13 13
3 3 3 2 2 2 4 3 5 3 3 3 3 4 3 3 3 3 4 5 4 4 3 5 4 5 4 5 3 3 3 4 5 4 3 2 3 3 3 3 3 3 4 3 3 4 9 13 13 13 15 15 15 15 15 14 13 15 18 20 19 18 18 19 19 19 18 18 18 17 17 17 16 16 16 15 15 15 15 15 15 15 14 14 13
4 4 4 5 4 4 3 3 3 4 4 3 2 3 3 3 3 4 4 4 5 7 6 5 6 6 5 5 4 3 3 3 4 3 2 3 3 3 3 3 3 5 3 3 3 4 7 11 13 15 14 16 15 13 13 16 14 18 19 19 20 19 18 17 16 16 18 20 19 19 18 18 17 17 17 16 16 15 14 15 16 15 15 14 14
5 4 5 4 4 4 3 4 4 4 3 2 2 2 3 3 4 3 4 5 5 5 5 5 4 5 4 4 4 3 4 3 2 3 2 3 3 3 3 2 2 3 3 3 3 3 3 6 9 12 12 12 12 13 16 16 17 22 20 19 20 20 20 20 20 17 16 17 18 19 18 18 17 17 17 17 17 16 15 15 15 15 15 14 14
7 7 5 5 5 4 4 5 5 4 3 2 2 2 2 3 4 4 3 5 5 5 5 5 6 6 6 7 5 5 4 2 2 2 2 2 3 3 2 2 2 2 2 2 2 3 3 4 5 5 6 11 13 13 13 17 20 20 21 22 21 22 21 21 21 22 20 18 18 19 19 18 17 17 18 17 17 16 15 15 16 17 16 16 15
6 6 6 5 4 4 5 3 3 3 4 4 3 2 3 3 4 4 4 4 4 5 5 4 5 6 7 6 5 5 4 3 2 2 2 2 2 2 2 2 1 1 1 1 2 2 3 5 5 5 5 6 9 9 13 16 18 21 23 24 23 22 23 22 21 20 21 21 20 20 19 19 19 18 18 18 17 16 15 15 15 16 17 16 16
5 5 5 4 4 4 3 2 2 3 3 4 4 4 3 2 2 2 3 3 2 2 3 2 3 4 2 3 5 3 3 2 1 2 3 2 2 2 2 2 2 2 2 1 2 3 3 3 4 4 5 5 5 7 10 13 15 17 20 21 22 23 23 23 22 21 21 21 20 20 18 19 18 19 18 18 17 16 16 15 15 16 16 17 16
5 5 5 5 4 3 3 3 3 3 3 3 3 4 3 2 2 3 1 2 2 1 1 1 2 1 3 5 5 5 2 2 3 3 2 2 2 2 3 4 4 3 2 2 2 1 2 2 2 3 3 4 5 4 6 7 9 14 16 18 19 20 21 21 22 23 22 21 20 20 18 17 17 19 19 19 18 17 17 16 16 16 16 17 16
5 5 5 5 4 3 3 3 3 3 3 3 2 3 2 2 2 2 2 1 2 1 2 2 1 1 1 2 3 5 4 4 2 2 2 1 1 2 2 3 4 3 3 2 2 2 2 2 2 2 3 3 5 6 6 7 8 12 13 14 16 18 20 22 22 21 19 20 19 17 17 16 15 17 18 19 19 18 18 17 17 17 17 17 17
5 5 4 4 5 4 3 3 3 3 3 2 2 2 1 1 1 1 1 2 2 1 3 2 1 0 2 2 1 1 2 2 5 5 1 3 1 2 2 3 3 3 3 4 3 3 3 3 3 3 3 3 4 5 6 6 9 11 12 13 13 14 18 19 19 18 17 17 18 18 17 19 19 17 19 19 20 20 18 18 18 18 18 18 18
5 6 5 5 5 4 4 4 3 1 1 2 2 2 1 1 1 1 3 1 1 1 2 2 2 2 2 1 1 1 1 2 5 4 3 3 2 3 2 3 3 4 4 3 2 2 3 4 4 4 4 4 4 4 5 5 6 6 8 11 13 13 14 16 17 17 18 18 19 20 19 19 18 18 20 21 20 21 21 19 19 19 19 19 19
5 5 5 5 5 5 5 4 3 2 2 2 1 0 1 1 1 2 1 1 1 2 1 2 2 2 1 1 2 1 2 2 2 3 3 1 3 2 2 2 2 4 3 3 5 4 3 4 4 4 4 4 4 4 5 5 6 5 6 8 13 14 14 14 14 16 18 18 19 18 19 21 20 21 21 21 20 19 22 21 20 20 20 20 19
5 5 5 5 5 5 5 4 3 3 2 2 2 3 3 2 1 1 1 2 2 1 1 2 2 2 2 2 1 0 1 0 1 2 4 4 3 3 4 4 5 4 2 2 4 4 4 4 5 4 3 3 4 4 4 5 7 8 11 13 14 14 14 14 14 14 17 18 17 18 20 22 22 22 21 23 21 20 20 22 22 21 21 20 20
6 5 5 5 4 4 4 4 3 3 3 4 3 3 2 1 2 1 1 2 2 2 1 1 1 1 1 2 1 2 2 1 2 1 2 5 6 3 1 5 7 4 2 4 4 5 6 5 4 5 4 4 4 4 5 5 6 6 6 11 13 14 14 15 16 16 16 17 17 17 19 19 20 21 21 24 23 22 22 23 24 22 21 21 21
4 6 5 5 4 5 4 4 4 3 3 3 2 3 4 4 3 2 2 2 3 2 2 2 2 2 0 1 2 2 1 1 1 2 2 2 5 3 6 5 2 2 4 4 3 4 4 4 4 4 4 4 4 5 5 5 6 6 8 14 15 15 15 15 16 17 17 17 16 17 18 19 20 21 22 23 22 22 24 24 23 21 21 22 22
4 5 5 5 5 4 5 5 5 4 4 4 4 3 3 3 4 4 3 3 3 3 3 2 2 2 2 2 1 0 1 1 1 2 2 3 4 6 7 9 8 4 6 4 7 6 4 4 4 3 3 4 4 4 5 6 6 6 9 15 14 14 15 15 16 16 17 17 17 18 18 18 20 20 21 22 23 23 24 23 24 24 25 26 26
4 4 5 6 6 5 5 5 5 5 4 4 5 4 3 3 2 2 3 3 2 3 2 2 2 2 2 3 3 3 3 2 3 3 3 3 3 5 6 5 7 9 4 6 7 5 3 3 2 3 3 3 3 3 5 5 8 10 15 14 14 14 15 15 16 16 16 17 17 18 19 19 19 19 20 21 22 22 24 25 25 25 25 26 27
3 4 4 5 5 5 5 5 4 4 4 4 4 4 3 3 3 3 2 2 2 2 2 2 3 2 3 3 4 3 3 3 2 3 4 3 3 5 6 6 7 4 5 7 5 3 5 4 2 2 3 2 2 3 4 5 7 14 12 14 14 15 15 15 16 16 17 17 16 18 18 19 20 20 20 20 21 22 24 24 24 24 24 25 26
4 5 5 6 5 5 4 5 4 4 5 4 4 4 3 3 3 3 2 2 3 3 2 3 3 3 3 3 3 3 4 4 2 3 2 2 3 4 5 4 5 7 3 2 3 4 3 3 3 3 3 2 2 2 3 4 5 11 15 10 14 14 14 14 15 15 16 17 17 18 19 20 19 19 20 21 21 22 22 23 24 25 24 23 24
6 6 6 6 5 6 6 6 5 5 5 5 5 4 4 4 4 4 4 4 2 3 4 4 3 3 1 2 3 3 4 3 3 3 3 3 3 4 4 3 5 8 5 3 1 3 3 3 3 4 3 2 1 2 4 5 5 11 15 11 10 12 13 14 14 14 16 17 18 19 19 20 20 21 20 21 22 22 22 22 23 25 25 25 22
7 6 5 6 7 5 5 5 5 5 5 5 4 4 4 3 4 4 4 3 3 3 3 4 4 4 3 4 3 2 3 2 3 4 3 3 3 3 3 5 4 1 2 2 3 4 6 3 3 4 4 2 1 3 4 5 7 13 14 8 7 12 13 14 14 15 15 16 17 18 19 20 20 21 21 21 20 23 23 23 23 23 23 23 23
6 5 6 7 6 6 5 6 6 5 5 5 5 5 4 4 4 3 5 2 3 4 4 4 4 5 4 3 1 4 3 3 3 3 4 4 4 3 4 3 4 6 1 4 2 3 1 2 3 4 4 3 2 3 7 8 6 12 12 7 6 7 12 13 14 15 15 16 17 17 18 19 20 21 22 22 21 20 22 21 22 21 20 20 20
6 6 7 6 6 6 6 6 6 5 5 5 4 4 4 4 4 4 4 3 3 5 4 4 4 3 3 5 5 4 4 3 3 3 3 3 3 3 5 5 5 3 3 3 4 3 2 3 3 2 1 1 4 4 5 5 7 10 8 7 7 6 9 13 15 15 15 16 16 17 18 18 19 20 20 21 21 21 20 20 20 21 21 21 20
6 5 6 7 6 5 6 6 6 5 5 4 4 4 4 4 4 4 4 3 3 3 3 4 4 3 4 3 3 4 4 3 4 4 4 5 4 4 5 5 5 5 4 5 7 4 3 2 4 4 2 3 3 5 5 6 10 10 7 7 7 8 11 14 15 15 16 16 16 16 18 18 19 19 20 19 20 20 21 20 20 21 22 22 22
5 5 5 6 6 5 5 5 5 5 5 5 4 4 4 4 4 5 4 3 4 5 4 4 4 3 4 5 4 4 3 4 4 3 3 4 5 4 4 4 6 6 5 3 5 3 4 4 4 3 4 5 5 6 6 6 8 10 8 7 8 11 16 12 13 15 16 17 17 16 17 18 19 19 19 20 20 20 21 21 21 20 21 22 22
6 6 6 6 6 6 5 5 5 5 5 5 5 5 4 5 4 4 4 4 4 5 6 4 3 4 5 6 6 5 4 4 4 4 5 4 4 4 5 4 4 5 4 4 7 10 3 4 5 7 8 7 6 7 7 5 6 11 7 7 9 13 9 8 11 13 15 16 17 17 17 18 19 20 20 20 21 21 21 21 21 20 21 21 22
6 6 6 6 6 6 6 6 6 6 6 6 5 4 4 5 4 5 4 4 5 5 4 5 4 5 5 6 6 6 4 5 5 4 4 5 4 4 4 4 4 4 6 6 6 9 6 5 6 7 6 4 7 5 7 6 6 6 7 8 8 8 8 7 8 11 14 15 17 18 18 18 19 20 21 21 21 22 22 22 21 21 21 21 21
6 6 6 5 6 6 6 6 6 6 6 6 5 4 5 5 5 4 5 5 5 6 4 6 6 4 5 6 6 6 5 6 5 5 5 5 5 5 5 5 6 5 6 6 6 5 11 5 4 4 6 5 7 6 7 8 8 7 9 8 7 7 7 8 8 9 13 15 16 18 19 19 19 19 20 21 22 22 23 23 22 22 21 21 21
5 5 6 6 6 6 6 6 6 6 7 7 5 5 6 6 7 6 6 6 6 6 6 7 7 5 5 6 7 5 4 5 6 6 5 5 4 5 6 5 6 6 6 7 5 7 10 10 7 4 4 4 5 8 8 6 8 7 9 9 8 7 7 8 9 9 11 16 16 17 19 20 19 20 20 21 22 22 22 22 22 22 21 21 20
6 5 5 6 5 6 6 7 7 7 7 7 6 6 7 7 7 7 7 6 6 6 7 7 6 5 6 6 7 6 5 6 6 5 4 4 5 5 5 5 5 7 5 5 7 7 5 10 11 10 5 6 7 7 7 7 8 9 8 8 8 9 8 8 9 9 11 16 18 18 19 20 20 20 20 21 21 21 21 21 22 22 21 21 21
5 5 5 5 5 5 6 7 7 7 8 7 7 7 6 6 7 7 7 6 6 7 7 7 5 5 6 6 7 5 5 6 6 5 5 6 5 5 6 5 5 6 4 5 6 5 6 10 13 9 5 7 7 9 8 8 9 9 9 9 9 9 9 9 9 8 13 16 17 18 18 19 21 21 20 21 21 21 21 21 21 22 22 21 21
5 6 7 6 6 7 7 8 8 8 7 7 7 7 7 6 6 6 6 6 7 7 7 6 6 6 6 7 7 5 5 6 6 6 5 6 5 5 6 6 6 5 5 6 5 5 6 8 8 10 7 7 8 8 7 6 10 13 14 11 8 8 8 8 7 7 7 7 8 10 13 15 18 20 20 20 21 22 22 22 21 22 22 22 21
8 8 7 6 6 7 8 8 8 8 8 7 7 7 6 6 6 6 6 6 6 6 6 6 6 5 6 6 6 6 6 6 7 6 6 6 5 7 6 6 5 5 6 6 5 5 6 7 8 8 9 8 7 12 10 5 9 11 13 13 11 7 7 7 9 7 7 9 12 16 17 17 20 19 20 21 22 23 24 24 23 22 22 22 21
9 9 8 8 7 6 8 8 8 7 7 7 7 6 6 6 6 6 6 6 6 6 6 5 5 5 6 6 6 6 7 6 6 6 6 6 5 6 5 5 5 5 5 5 5 5 6 8 11 11 8 8 10 9 7 7 11 11 7 7 12 12 9 8 8 10 9 8 11 10 11 14 15 16 19 19 20 21 23 24 25 24 24 23 22
7 8 7 7 6 7 8 8 7 6 6 7 6 6 7 7 6 6 6 6 6 6 6 5 5 5 5 6 6 7 7 9 11 9 8 7 5 6 6 5 5 5 5 5 5 5 8 8 10 9 10 12 11 11 13 12 12 12 10 9 14 13 10 10 8 8 10 10 9 11 10 9 12 11 12 12 12 16 18 21 19 23 23 22 22
8 6 5 5 6 9 9 7 6 5 6 5 7 11 8 6 6 5 5 5 6 6 5 5 5 5 6 6 6 10 11 11 11 12 12 13 13 9 7 5 5 5 5 5 7 8 8 9 9 9 11 13 13 12 12 13 13 11 13 12 13 13 10 11 9 6 7 9 11 11 10 8 11 14 13 14 13 13 12 12 12 13 16 20 22
8 5 4 6 7 7 8 7 7 6 6 5 9 10 10 9 5 4 5 6 5 5 5 6 7 6 5 6 5 7 8 8 9 11 12 13 13 13 13 12 9 7 7 8 9 8 9 9 9 10 11 13 15 14 14 14 13 13 11 11 13 13 14 16 16 8 5 8 11 12 12 9 10 14 14 14 14 14 13 13 16 17 19 19 20
7 4 6 7 7 7 6 6 6 6 6 8 10 8 8 9 8 6 6 6 5 5 5 6 6 6 6 5 4 3 4 5 6 6 8 11 12 12 11 11 12 13 12 9 8 9 9 9 9 11 12 14 13 14 15 13 13 12 11 11 12 14 14 14 12 12 9 7 12 14 16 11 10 13 14 13 13 13 14 17 19 19 19 20 20
3 4 7 7 7 7 7 7 7 6 6 8 10 11 10 10 10 8 5 6 6 6 6 6 6 6 5 4 4 4 4 7 6 6 6 7 8 9 10 10 11 11 11 13 13 11 8 10 10 12 12 12 13 14 12 14 12 14 12 13 13 13 13 14 13 12 12 10 12 14 18 13 9 13 15 14 13 13 14 17 21 22 21 21 20
7 8 8 8 8 8 8 8 7 7 7 9 11 11 9 9 9 7 6 7 7 7 7 6 6 6 5 4 4 5 4 4 4 4 5 6 7 7 6 6 6 8 9 11 12 14 13 11 11 12 14 12 12 14 17 15 14 14 14 15 15 17 15 15 17 15 13 10 12 14 16 14 10 12 16 16 12 13 14 17 20 20 21 21 21
7 8 8 8 8 9 9 8 7 8 7 9 9 9 9 10 10 7 5 5 5 6 6 5 5 5 4 4 5 5 5 5 4 3 5 6 7 7 8 9 10 9 8 7 6 6 7 8 10 12 14 14 13 13 14 15 16 15 14 15 16 16 17 18 18 17 13 10 14 12 17 13 9 11 16 15 12 13 13 16 20 22 21 20 21
6 7 7 8 9 9 9 8 8 8 8 8 9 9 10 10 7 4 4 5 5 5 5 4 4 4 4 5 4 4 5 5 7 7 6 6 7 8 9 10 10 9 9 7 6 6 8 8 9 10 12 14 13 13 14 13 12 14 16 15 14 14 14 14 16 11 12 9 11 13 14 14 11 14 17 14 12 14 13 13 17 20 21 21 20
7 8 9 8 8 9 9 9 9 8 8 8 9 9 9 9 6 4 5 4 4 5 5 4 3 4 4 4 4 4 5 6 7 7 6 4 6 8 9 10 9 9 9 6 5 8 9 10 11 13 15 16 18 19 19 19 15 14 12 13 11 12 12 15 15 15 16 11 9 12 14 17 14 13 17 14 13 14 13 13 12 16 20 21 21
7 8 8 8 8 8 9 9 9 8 8 7 9 9 10 10 7 5 4 4 5 4 4 3 3 3 3 6 5 4 5 7 7 5 5 5 6 7 8 9 9 8 8 5 4 4 5 10 13 14 15 16 17 18 18 17 17 13 9 13 13 11 11 12 15 19 18 13 14 12 14 14 16 13 14 13 12 12 13 12 12 13 16 17 22
8 7 7 7 7 7 8 7 7 8 8 5 7 7 8 7 6 4 4 4 5 5 4 3 2 2 2 3 3 3 4 5 6 6 5 4 5 6 7 6 7 8 7 6 7 8 8 8 8 9 10 9 9 10 12 13 14 13 10 12 12 12 12 13 13 16 19 9 6 8 12 14 14 14 12 10 11 10 11 11 11 11 12 11 11
Wind_Direction
233 236 227 234 244 249 257 258 268 269 270 261 254 278 271 274 286 302 323 353 357 347 329 308 298 282 281 293 287 278 260 265 261 259 262 263 262 265 264 264 262 264 265 262 251 267 288 258 238 240 244 245 248 275 248 225 228 226 225 223 225 224 223 220 219 219 219 222 223 227 228 225 223 218 215 212 213 220 226 230 230 229 230 232 233
238 239 219 240 234 253 269 299 297 305 299 284 280 268 287 298 302 329 5 72 256 281 304 306 300 296 275 278 277 274 273 268 262 265 260 263 265 274 270 269 267 263 260 253 196 216 230 243 246 237 237 237 226 224 257 260 229 224 226 225 225 225 224 224 224 222 221 221 224 226 229 232 228 225 223 221 219 222 226 230 233 234 234 234 236
237 245 237 245 264 301 301 296 289 305 269 254 233 241 238 264 330 24 32 280 221 241 265 282 289 276 258 279 280 280 269 269 274 270 270 265 265 272 277 276 270 269 265 260 175 198 216 231 246 242 240 242 239 236 235 242 260 243 224 225 226 228 227 226 226 227 224 223 223 225 227 230 233 231 227 228 226 226 227 230 232 234 235 236 237
235 243 240 241 278 268 257 9 338 303 294 335 22 36 49 100 116 116 135 161 231 245 264 278 288 284 278 267 270 282 279 276 268 256 255 254 251 264 271 279 282 280 279 259 227 199 219 221 227 235 237 238 238 239 240 242 241 255 260 235 227 227 228 229 227 228 229 226 224 225 225 227 229 234 233 231 232 231 231 232 232 234 236 236 238
232 235 248 42 210 311 44 245 242 297 323 351 13 49 9 251 113 117 130 217 254 265 255 257 267 280 286 281 278 272 267 279 265 263 258 253 253 252 256 268 276 287 282 274 254 239 221 224 231 234 236 237 240 240 243 249 246 246 244 256 241 230 229 229 230 229 228 229 228 225 225 225 225 228 233 236 236 237 235 234 234 234 236 237 238
230 231 104 164 136 141 230 302 296 310 319 313 309 358 268 273 272 165 255 257 255 252 257 262 262 275 270 274 278 271 264 266 257 257 265 265 256 255 255 260 266 271 274 273 269 264 240 231 235 240 238 235 239 242 241 241 250 255 265 260 259 258 245 234 232 231 229 228 227 228 227 226 226 226 228 232 237 239 239 237 237 236 237 238 238
214 147 168 157 142 159 327 280 295 286 291 270 261 268 252 264 255 268 267 255 255 263 264 274 284 278 275 282 282 268 266 268 271 267 260 264 267 255 253 250 260 256 260 261 252 259 264 241 234 241 244 244 242 243 242 246 246 248 254 261 264 260 273 277 249 230 231 229 228 228 228 229 228 227 227 228 232 236 239 240 240 239 239 238 239
160 120 81 78 126 185 225 240 261 279 276 268 225 230 241 258 260 243 267 267 254 264 252 270 273 276 276 282 272 271 272 274 271 269 272 269 260 260 239 239 237 244 250 248 246 243 240 249 248 243 253 254 255 250 251 246 241 243 247 251 247 240 227 232 253 256 237 230 229 227 227 228 230 229 227 228 229 231 235 239 241 241 240 240 240
135 126 144 174 201 229 242 248 258 243 247 245 216 227 222 231 250 237 233 265 275 281 276 262 270 274 279 272 271 270 270 264 275 278 268 256 258 254 251 242 238 244 245 240 234 228 231 241 248 254 254 245 249 257 277 268 248 247 245 252 250 251 246 238 242 248 252 243 230 228 228 228 229 230 230 229 229 229 231 235 239 239 240 240 241
132 173 219 176 202 228 236 231 232 226 225 221 233 242 224 222 249 246 235 241 262 272 284 285 278 282 278 274 283 288 274 271 279 292 283 281 274 260 256 251 248 239 238 241 249 245 248 246 251 259 249 249 253 246 229 244 246 245 244 245 248 251 249 247 244 244 247 250 246 238 230 229 229 228 229 231 231 230 229 233 235 237 239 239 239
186 211 188 190 207 212 219 217 205 200 194 199 247 251 243 243 243 259 242 238 251 259 266 285 293 297 301 299 296 284 283 307 317 300 302 294 292 296 274 255 246 250 254 254 261 269 270 279 281 273 264 249 240 238 238 234 243 252 247 240 238 241 243 242 241 243 243 245 246 243 239 234 229 228 229 229 231 232 231 231 234 236 237 238 238
191 180 182 182 187 207 210 209 202 186 203 249 260 228 234 239 254 247 273 283 258 257 264 281 291 297 291 290 285 288 307 343 330 325 328 343 342 342 347 327 265 284 269 286 287 295 294 295 290 290 288 272 268 252 249 242 232 229 238 247 244 243 242 244 244 240 243 244 245 242 241 240 235 229 228 228 229 230 230 231 231 233 236 236 236
176 166 175 179 193 193 182 191 199 198 216 235 249 262 245 239 252 246 261 279 293 265 287 267 318 306 302 305 318 334 335 337 24 31 29 11 18 36 32 34 19 6 3 1 333 319 312 305 303 298 291 290 287 275 255 253 242 238 241 243 243 243 244 243 239 242 241 240 240 240 238 241 239 237 231 230 228 228 229 229 229 231 234 236 233
171 170 171 185 188 184 175 186 190 212 230 249 264 267 285 275 261 295 245 242 270 7 43 99 0 344 329 331 332 324 8 25 93 48 21 26 26 33 35 32 20 9 12 21 359 331 317 308 284 288 286 292 288 275 267 264 263 259 255 251 250 251 252 249 245 243 241 244 248 249 244 239 242 244 245 235 230 229 228 229 229 229 231 233 234
177 173 175 187 189 171 198 190 194 218 239 265 319 315 316 292 264 246 306 109 266 355 6 191 263 72 52 21 350 354 335 1 336 12 1 335 2 35 20 21 9 11 6 2 11 3 343 327 314 302 293 282 295 288 284 277 272 266 263 263 261 259 260 261 257 255 256 255 256 257 258 266 247 244 242 244 238 231 229 228 229 229 230 232 233
181 181 180 179 178 191 195 182 212 209 193 244 339 304 320 348 358 262 211 307 12 332 28 58 132 137 325 3 285 88 314 1 336 307 330 326 342 29 8 8 9 3 10 10 1 356 350 345 342 332 315 308 297 299 296 295 292 294 296 290 279 267 267 270 272 272 268 263 259 256 251 244 251 247 245 243 244 242 234 231 229 229 229 231 233
177 180 170 179 178 175 175 172 157 166 129 152 204 222 247 350 161 164 174 193 315 329 352 40 59 65 147 161 25 17 221 285 332 280 330 349 355 359 353 5 13 4 359 352 358 4 342 343 346 345 340 330 324 316 312 308 305 301 295 290 292 291 288 286 281 276 271 261 251 252 247 246 246 244 245 244 242 243 241 233 230 229 229 230 231
166 164 171 155 163 172 160 140 132 155 158 176 175 14 340 247 201 157 145 79 138 78 332 336 34 15 124 162 165 171 288 315 4 316 321 315 312 311 326 2 24 354 346 348 352 349 350 344 342 344 343 342 335 330 327 320 312 309 309 303 300 296 291 286 283 277 272 266 262 255 250 246 240 241 244 246 245 242 244 241 234 230 228 229 230
156 155 156 158 155 163 157 153 149 158 168 149 184 206 211 198 136 104 126 138 124 86 306 292 345 51 46 44 345 353 134 112 336 314 332 320 330 345 330 353 348 340 354 8 345 336 342 346 340 342 348 346 343 341 337 333 331 328 323 323 323 320 316 311 306 292 284 280 271 263 258 251 249 246 243 244 243 244 243 243 240 233 228 227 229
151 157 156 159 155 159 149 141 145 157 172 186 183 171 150 130 121 137 155 172 173 188 209 221 163 272 349 3 34 58 64 133 160 282 279 307 311 321 305 347 339 328 356 356 349 347 340 340 341 342 349 351 355 354 351 345 342 337 332 326 324 321 318 321 317 311 302 295 284 272 265 261 252 247 245 244 245 242 241 241 243 241 232 229 227
155 158 169 168 166 167 159 146 147 161 169 171 152 154 158 156 156 167 181 188 197 207 169 203 178 220 345 23 41 50 57 55 277 236 239 303 286 311 318 334 321 303 345 341 349 343 340 333 336 344 344 348 357 359 0 359 350 345 342 343 342 340 339 334 327 323 320 317 305 294 285 273 265 262 259 255 247 246 248 247 244 242 241 237 232
177 165 157 173 165 163 163 167 168 169 173 173 159 151 153 159 174 175 170 170 201 194 200 175 193 176 152 147 128 164 34 53 167 201 229 211 267 307 315 323 328 317 331 332 345 342 342 343 340 347 347 352 357 2 4 360 354 348 343 345 345 343 341 337 333 327 324 322 317 310 304 293 278 269 264 259 255 251 250 251 249 244 243 242 242
177 169 164 167 169 170 171 178 177 181 169 168 178 173 182 169 158 146 163 178 179 179 188 175 164 162 177 192 202 197 198 173 197 181 202 230 281 280 295 306 301 310 311 330 325 321 326 329 339 338 349 346 357 -0 2 353 350 342 343 343 343 342 340 337 334 330 326 321 318 314 310 306 299 289 278 270 265 260 256 252 247 247 245 243 243
170 161 178 174 166 179 183 175 186 188 186 194 185 189 174 155 152 173 180 187 192 186 180 171 192 185 208 209 218 219 223 226 185 175 184 224 224 279 298 311 307 256 286 315 302 293 325 322 301 313 329 333 345 5 359 351 338 339 340 339 339 339 335 333 331 329 326 321 317 314 310 305 301 297 294 286 276 268 264 258 254 246 243 245 244
184 179 188 181 174 171 179 188 203 208 206 194 210 189 176 178 184 178 172 199 201 198 195 226 194 204 208 215 219 217 229 231 196 169 187 177 220 263 284 277 277 300 311 343 316 322 294 303 295 304 319 312 319 6 355 344 332 330 335 331 334 332 329 327 325 322 321 319 316 314 310 306 302 298 293 288 284 282 274 266 259 255 250 247 247
179 190 187 179 182 185 184 195 207 208 205 208 206 199 186 195 197 197 210 221 199 203 220 224 197 226 238 240 232 224 239 228 206 192 181 188 221 236 272 276 276 289 301 303 307 344 312 292 285 283 291 287 307 338 354 333 323 327 328 328 326 322 322 320 317 315 315 315 311 310 308 305 301 298 293 289 284 281 277 272 264 259 255 252 245
182 195 176 176 185 186 193 200 208 214 214 212 211 204 195 190 199 214 220 208 213 211 234 221 231 221 229 234 241 230 236 216 191 212 186 194 184 195 207 291 302 269 285 280 306 239 250 289 278 285 265 279 294 333 332 322 320 321 322 322 314 314 314 314 312 312 311 310 307 305 304 302 299 295 292 289 284 281 278 274 269 264 257 253 251
192 173 184 177 184 193 198 204 205 208 208 207 209 204 199 196 214 206 233 183 203 214 232 217 232 230 220 213 208 244 232 218 207 205 196 196 196 171 194 213 264 289 303 280 306 278 247 262 295 255 266 280 302 326 321 321 311 314 317 309 305 303 306 307 309 308 308 307 305 304 301 299 296 294 290 286 281 277 274 272 269 265 261 256 251
180 185 178 190 190 193 197 203 203 208 213 214 208 208 196 203 216 218 236 219 205 225 217 221 232 226 226 215 218 230 229 217 210 205 197 193 196 193 191 206 191 237 283 277 241 250 261 211 282 284 235 264 311 317 316 303 305 311 307 303 297 293 295 300 303 307 306 305 303 301 299 295 295 292 289 285 281 276 270 266 264 264 262 258 254
179 181 183 190 198 198 198 204 204 205 214 220 216 220 204 220 225 232 236 230 235 246 230 221 236 219 231 231 218 225 229 215 215 207 195 197 187 192 192 202 180 201 217 262 282 188 252 258 214 269 257 285 309 304 304 298 301 307 296 294 292 293 293 295 300 305 304 301 299 297 296 295 293 291 288 284 280 275 270 264 259 258 258 256 253
179 175 185 195 197 204 204 211 205 212 216 223 216 215 204 222 223 231 232 209 224 245 242 217 233 218 224 235 222 234 225 230 230 216 210 192 200 189 188 180 200 207 202 209 280 251 191 246 264 235 274 291 295 290 291 291 297 303 298 293 290 293 301 301 297 296 298 299 298 296 294 293 291 289 287 283 279 275 270 265 259 255 253 253 251
185 186 187 197 197 204 208 211 214 216 220 225 213 212 200 218 220 225 222 193 215 231 243 223 229 222 223 231 228 230 223 225 236 229 218 211 198 194 186 184 198 207 197 205 239 266 199 231 271 282 278 284 285 285 279 279 287 297 294 288 291 299 299 291 286 285 292 295 295 296 293 292 290 289 287 284 280 276 270 265 259 253 249 249 248
182 186 197 202 205 209 210 214 214 220 224 232 217 200 203 223 222 226 228 199 215 231 233 249 230 224 228 232 236 232 211 221 229 231 228 219 206 211 191 185 197 190 199 212 239 271 272 209 238 258 268 294 290 253 282 283 288 289 287 284 289 291 290 285 287 280 284 289 293 293 293 290 289 287 286 284 281 277 273 267 261 254 249 245 244
180 193 199 204 210 210 210 222 223 224 228 235 228 201 211 220 234 207 228 217 219 234 217 244 247 230 230 238 243 238 208 224 228 231 230 222 215 210 210 198 206 205 192 205 231 250 280 276 239 232 266 240 265 270 281 298 297 297 294 293 286 280 280 287 287 285 281 286 289 290 290 289 286 285 284 283 281 277 273 268 262 256 250 245 241
189 196 200 203 211 211 218 224 226 228 230 235 230 211 219 219 227 228 221 222 224 235 232 241 244 236 237 240 245 237 218 226 229 235 225 228 218 220 225 209 222 220 202 203 220 254 269 278 277 264 260 248 249 286 290 283 287 287 290 289 288 284 276 275 279 282 281 285 284 286 288 288 285 283 282 282 281 279 274 268 262 255 250 245 241
190 204 203 209 213 211 219 229 228 233 234 235 230 216 219 219 223 231 231 223 226 232 240 245 240 226 236 244 248 237 229 236 242 235 228 224 220 223 231 229 223 236 220 205 214 231 258 280 284 281 279 293 276 268 275 284 289 293 285 285 278 274 272 274 270 274 280 284 285 284 284 285 284 281 279 278 278 277 274 268 261 255 249 244 240
196 193 210 203 211 214 218 226 230 229 233 231 230 228 223 217 221 227 235 234 231 232 233 237 239 233 235 238 252 243 226 239 246 242 233 229 226 224 234 234 232 237 239 224 232 218 252 267 281 284 282 271 272 278 284 293 294 286 282 272 281 280 276 269 273 264 271 277 280 283 281 282 282 280 276 275 275 274 273 269 261 254 248 243 238
189 199 209 205 202 214 221 228 227 230 233 230 228 231 227 221 221 228 235 233 235 229 231 231 233 230 235 243 249 243 231 229 244 245 238 242 240 235 236 241 239 241 246 249 235 234 239 261 273 285 278 278 285 277 281 280 290 295 296 289 275 271 274 276 263 274 276 280 288 287 286 282 280 278 275 274 273 271 271 268 263 254 247 241 236
194 206 209 203 216 212 223 222 222 226 229 228 228 228 227 218 214 218 224 225 230 227 227 229 233 232 236 242 247 237 235 232 240 245 242 246 239 245 237 238 244 243 249 252 246 243 238 261 268 260 275 270 263 288 288 276 279 276 282 290 289 266 265 273 288 277 275 282 273 272 277 280 280 280 279 276 273 271 268 266 262 254 246 240 234
205 207 211 211 218 211 226 224 224 217 219 223 222 217 214 212 206 212 218 221 226 228 232 233 231 234 235 239 241 240 236 236 233 239 232 243 237 246 242 231 234 237 245 251 257 251 264 271 274 281 277 282 287 273 273 275 286 283 251 263 288 292 285 285 284 296 288 279 287 284 276 279 274 268 266 265 265 265 264 264 260 253 245 238 233
201 212 210 211 210 222 229 219 210 200 203 212 208 197 201 206 205 215 217 219 225 232 238 239 233 233 239 237 239 240 236 242 241 240 240 233 227 239 244 220 224 227 239 247 251 264 270 267 273 276 281 285 284 287 288 285 279 278 289 291 290 287 285 285 278 273 285 290 279 279 276 276 284 278 278 278 274 273 270 260 256 251 243 237 231
216 214 220 209 209 220 223 212 202 198 211 214 214 209 209 213 209 214 214 222 221 224 234 243 241 230 234 234 241 243 245 249 251 251 250 249 244 241 245 227 225 230 236 246 262 263 263 265 267 278 284 284 285 284 283 280 283 283 285 286 288 291 291 281 271 265 275 280 285 280 275 274 279 284 280 279 276 272 272 269 257 245 240 231 229
218 192 184 218 223 223 219 209 206 211 222 226 227 229 232 232 229 220 222 233 222 223 225 230 246 245 232 232 240 253 258 260 258 257 259 258 259 251 247 246 242 230 245 253 257 257 261 263 269 272 274 279 283 286 284 285 286 285 284 285 289 292 293 299 301 286 221 272 286 288 282 276 275 277 276 270 271 270 266 265 269 249 238 234 227
225 192 197 217 228 227 222 215 213 216 224 231 232 238 236 232 224 225 219 227 226 222 221 225 236 244 249 246 244 241 248 248 254 263 264 265 263 259 251 245 243 238 230 236 250 262 257 258 263 266 273 279 286 288 286 287 288 291 288 289 288 289 287 290 290 288 296 295 290 292 284 280 275 273 272 266 263 262 258 258 261 259 241 233 229
206 218 221 218 226 227 223 217 219 223 231 229 225 225 228 232 230 223 232 223 225 225 216 220 226 234 238 245 257 250 243 242 249 250 255 268 269 262 258 259 257 246 236 234 235 242 255 262 264 269 269 278 283 282 279 285 290 291 292 291 290 286 285 288 281 284 293 303 297 286 287 282 269 271 269 262 259 259 257 250 249 252 248 234 227
205 217 222 218 221 223 222 217 220 226 230 233 225 226 230 236 239 225 229 224 223 223 221 219 222 229 227 227 236 256 262 254 245 243 256 267 275 277 269 255 256 258 247 237 236 240 241 248 257 263 272 272 270 278 286 290 291 290 292 292 290 290 289 287 286 286 283 294 279 283 282 279 255 259 266 265 255 252 252 250 247 247 244 235 226
206 214 216 217 221 220 221 216 218 228 234 231 222 220 229 235 241 224 221 224 226 230 232 229 228 231 225 219 225 240 258 268 255 247 278 280 281 278 278 276 275 274 271 263 238 236 247 239 246 256 267 273 273 277 283 287 287 288 289 290 292 290 287 287 284 276 268 262 268 267 276 275 258 255 261 260 254 251 248 245 239 241 241 235 226
215 218 223 219 222 220 217 212 214 230 236 224 215 218 221 229 219 200 200 213 224 233 241 234 231 227 224 223 223 231 251 268 284 286 275 281 281 277 277 279 282 280 278 270 271 270 265 269 269 269 274 279 285 287 288 290 293 291 292 290 286 282 283 287 287 279 275 258 260 266 272 273 262 263 268 261 251 250 245 241 238 234 236 234 227
206 212 219 216 215 216 215 211 211 225 236 226 212 217 217 207 184 194 190 209 222 231 242 238 230 226 220 219 216 246 262 277 286 293 300 306 280 277 279 281 282 285 284 291 244 244 254 262 266 272 275 279 280 280 277 276 274 279 286 288 278 281 291 295 290 290 285 279 272 264 270 278 269 261 267 261 253 252 248 240 237 232 228 229 226
213 216 216 219 217 216 215 211 207 209 229 231 202 203 204 193 194 190 198 203 224 231 241 230 219 220 230 239 239 247 262 280 287 309 335 316 280 277 278 281 286 289 291 302 317 305 269 267 268 265 265 266 268 270 271 270 270 268 279 280 280 288 284 284 289 293 292 285 276 262 270 261 270 260 261 262 259 246 247 244 237 237 231 223 223
221 218 216 219 222 218 219 213 190 198 223 218 171 199 196 195 199 206 194 202 226 233 228 246 209 258 288 284 266 259 267 286 313 321 317 292 263 263 270 279 282 287 300 331 324 317 318 316 304 305 299 285 285 293 297 289 281 279 269 275 286 287 286 287 288 295 298 278 196 268 281 279 271 261 247 260 254 245 226 228 227 227 231 230 215